GW6843 Weather Reports


time (UTC)temp
F
wind
direction
speed
knots
gust
knots
rain 1hr
in
rain 24hr
in
rain mn
in
humidity
%
barometer
mb
20260906224516 87 34 4.3 9.6 0.00 0.00 0.00 35 1017.1
20260906223518 86 48 3.5 9.6 0.00 0.00 0.00 35 1017.3
20260906222517 85 84 1.7 8.7 0.00 0.00 0.00 35 1017.5
20260906221516 85 40 1.7 5.2 0.00 0.00 0.00 36 1017.6
20260906220517 86 36 2.6 6.1 0.00 0.00 0.00 35 1017.8
20260906215517 86 39 1.7 7.8 0.00 0.00 0.00 35 1018.0
20260906214518 85 68 1.7 4.3 0.00 0.00 0.00 36 1018.1
20260906213538 84 48 1.7 8.7 0.00 0.00 0.00 35 1018.3
20260906212516 85 39 3.5 10.4 0.00 0.00 0.00 35 1018.3
20260906211517 85 45 3.5 8.7 0.00 0.00 0.00 35 1018.5
20260906210517 86 120 3.5 9.6 0.00 0.00 0.00 34 1018.7
20260906205516 85 55 2.6 9.6 0.00 0.00 0.00 34 1018.7
20260906204517 86 55 3.5 7.8 0.00 0.00 0.00 34 1018.9
20260906203517 85 63 3.5 8.7 0.00 0.00 0.00 35 1018.9
20260906202537 86 66 2.6 8.7 0.00 0.00 0.00 34 1019.0
20260906201517 86 207 1.7 5.2 0.00 0.00 0.00 35 1019.1
20260906200516 84 171 1.7 7.0 0.00 0.00 0.00 36 1019.3
20260906195517 84 96 3.5 9.6 0.00 0.00 0.00 37 1019.4
20260906194515 83 61 2.6 8.7 0.00 0.00 0.00 37 1019.5
20260906193515 82 70 2.6 7.8 0.00 0.00 0.00 37 1019.6
20260906192535 83 113 2.6 8.7 0.00 0.00 0.00 38 1019.8
20260906191515 83 61 2.6 9.6 0.00 0.00 0.00 38 1020.0
20260906190515 82 96 2.6 7.0 0.00 0.00 0.00 38 1020.1
20260906185555 82 81 3.5 7.0 0.00 0.00 0.00 39 1020.3
20260906184515 81 107 2.6 9.6 0.00 0.00 0.00 40 1020.5
20260906183515 80 79 3.5 7.8 0.00 0.00 0.00 42 1020.7
20260906182515 80 87 4.3 8.7 0.00 0.00 0.00 42 1020.8
20260906181515 80 75 0.9 7.8 0.00 0.00 0.00 44 1020.9
20260906180535 80 79 2.6 7.0 0.00 0.00 0.00 45 1021.1
20260906175515 80 128 1.7 7.0 0.00 0.00 0.00 45 1021.2
20260906174515 80 100 0.9 2.6 0.00 0.00 0.00 46 1021.4
20260906173515 79 114 0.9 3.5 0.00 0.00 0.00 47 1021.6
20260906172515 78 61 1.7 5.2 0.00 0.00 0.00 48 1021.8
20260906171515 77 111 1.7 3.5 0.00 0.00 0.00 49 1022.0
20260906170515 77 102 2.6 7.0 0.00 0.00 0.00 49 1022.2
20260906165515 77 92 1.7 5.2 0.00 0.00 0.00 48 1022.4
20260906164515 76 113 1.7 4.3 0.00 0.00 0.00 49 1022.4
20260906163515 76 169 1.7 7.0 0.00 0.00 0.00 49 1022.3
20260906162515 75 67 2.6 6.1 0.00 0.00 0.00 51 1022.2
20260906161515 75 92 1.7 4.3 0.00 0.00 0.00 49 1022.1
20260906160515 75 116 1.7 6.1 0.00 0.00 0.00 49 1022.1
20260906155515 74 92 0.9 4.3 0.00 0.00 0.00 47 1022.1
20260906154515 74 113 0.9 4.3 0.00 0.00 0.00 48 1022.1
20260906153515 73 107 1.7 5.2 0.00 0.00 0.00 49 1022.0
20260906152515 73 109 2.6 5.2 0.00 0.00 0.00 50 1022.0
20260906151515 72 219 0.9 3.5 0.00 0.00 0.00 50 1022.0
20260906150515 72 74 0.9 2.6 0.00 0.00 0.00 50 1022.1
20260906145515 71 115 0.9 4.3 0.00 0.00 0.00 52 1022.2
20260906144515 70 109 0.9 2.6 0.00 0.00 0.00 54 1022.1
20260906143515 70 61 0.9 2.6 0.00 0.00 0.00 55 1022.1
20260906142515 69 59 0.9 3.5 0.00 0.00 0.00 56 1022.2
20260906141535 70 263 0.9 2.6 0.00 0.00 0.00 54 1022.2
20260906140515 69 263 0.9 1.7 0.00 0.00 0.00 56 1022.2
20260906135535 68 263 0.0 1.7 0.00 0.00 0.00 56 1022.2
20260906134535 67 263 0.0 2.6 0.00 0.00 0.00 54 1022.2
20260906133517 66 263 0.9 1.7 0.00 0.00 0.00 57 1021.8
20260906132516 65 263 0.0 1.7 0.00 0.00 0.00 57 1021.9
20260906131517 64 0.0 1.7 0.00 0.00 0.00 60 1021.9
20260906130517 63 263 0.0 1.7 0.00 0.00 0.00 62 1021.8
20260906125517 63 263 0.0 1.7 0.00 0.00 0.00 62 1021.7
20260906124538 63 263 0.9 1.7 0.00 0.00 0.00 62 1021.5
20260906123517 62 262 0.9 2.6 0.00 0.00 0.00 63 1021.5
20260906122517 63 271 0.0 1.7 0.00 0.00 0.00 62 1021.7
20260906121538 63 0.0 0.0 0.00 0.00 0.00 60 1021.7
20260906120537 64 0.0 0.0 0.00 0.00 0.00 59 1021.8
20260906115518 64 0.0 0.0 0.00 0.00 0.00 59 1021.9
20260906114518 64 242 1.7 3.5 0.00 0.00 0.00 58 1021.8
20260906113517 64 22 0.9 1.7 0.00 0.00 0.00 57 1021.8
20260906112517 65 8 0.9 2.6 0.00 0.00 0.00 56 1021.7
20260906111517 65 352 1.7 4.3 0.00 0.00 0.00 55 1021.6
20260906110518 65 8 0.9 2.6 0.00 0.00 0.00 54 1021.4
20260906105518 66 11 0.9 4.3 0.00 0.00 0.00 54 1021.6
20260906104517 66 15 1.7 4.3 0.00 0.00 0.00 53 1021.2
20260906103518 67 357 1.7 3.5 0.00 0.00 0.00 50 1021.3
20260906102515 67 350 1.7 4.3 0.00 0.00 0.00 49 1021.4
20260906101535 68 349 0.9 2.6 0.00 0.00 0.00 49 1021.3
20260906100515 69 26 1.7 6.1 0.00 0.00 0.00 47 1021.3
20260906095515 69 260 2.6 7.8 0.00 0.00 0.00 46 1021.3
20260906094515 70 259 4.3 9.6 0.00 0.00 0.00 46 1021.3
20260906093515 70 246 4.3 9.6 0.00 0.00 0.00 46 1021.3
20260906092515 70 254 4.3 10.4 0.00 0.00 0.00 46 1021.3
20260906091515 71 271 3.5 8.7 0.00 0.00 0.00 45 1021.2
20260906090515 71 265 3.5 7.8 0.00 0.00 0.00 44 1021.2
20260906085515 71 247 5.2 9.6 0.00 0.00 0.00 44 1021.2
20260906084515 71 244 5.2 13.0 0.00 0.00 0.00 45 1021.0
20260906083515 71 259 5.2 11.3 0.00 0.00 0.00 45 1021.1
20260906082535 71 334 3.5 10.4 0.00 0.00 0.00 45 1020.9
20260906081515 71 291 3.5 10.4 0.00 0.00 0.00 45 1020.9
20260906080515 72 313 2.6 8.7 0.00 0.00 0.00 45 1020.9
20260906075515 72 271 5.2 12.2 0.00 0.00 0.00 45 1020.9
20260906074515 72 268 6.1 13.0 0.00 0.00 0.00 45 1020.8
20260906073535 72 257 7.8 16.5 0.00 0.00 0.00 45 1020.7
20260906072515 72 269 9.6 13.9 0.00 0.00 0.00 46 1020.7
20260906071518 72 262 7.8 13.9 0.00 0.00 0.00 46 1020.8
20260906070537 72 264 8.7 14.8 0.00 0.00 0.00 46 1020.9
20260906065518 72 259 7.0 14.8 0.00 0.00 0.00 46 1020.9
20260906064517 72 263 9.6 17.4 0.00 0.00 0.00 45 1021.0
20260906063518 72 267 7.8 14.8 0.00 0.00 0.00 45 1021.0
20260906062537 73 264 7.8 17.4 0.00 0.00 0.00 45 1021.1
20260906061537 73 267 7.8 13.0 0.00 0.00 0.00 45 1021.2
20260906060515 73 262 7.8 13.0 0.00 0.00 0.00 45 1021.3
20260906055537 72 260 7.8 13.0 0.00 0.00 0.00 46 1021.4
20260906054537 73 257 7.0 13.0 0.00 0.00 0.00 46 1021.5
20260906053517 73 262 7.0 14.8 0.00 0.00 0.00 46 1021.5
20260906052517 73 256 5.2 14.8 0.00 0.00 0.00 45 1021.6
20260906051517 73 251 5.2 13.0 0.00 0.00 0.00 47 1021.7
20260906050517 74 286 5.2 12.2 0.00 0.00 0.00 44 1021.9
20260906045517 75 280 4.3 12.2 0.00 0.00 0.00 42 1022.0
20260906044516 75 260 7.0 14.8 0.00 0.00 0.00 41 1021.9
20260906043518 77 242 11.3 20.9 0.00 0.00 0.00 39 1021.8
20260906042518 77 250 7.8 15.6 0.00 0.00 0.00 37 1021.3
20260906041515 78 267 7.8 16.5 0.00 0.00 0.00 35 1021.0
20260906040515 78 236 8.7 20.0 0.00 0.00 0.00 34 1020.9
20260906035515 79 253 7.8 16.5 0.00 0.00 0.00 33 1020.9
20260906034515 78 277 7.8 14.8 0.00 0.00 0.00 34 1020.7
20260906033515 78 254 7.0 17.4 0.00 0.00 0.00 34 1020.4
20260906032515 78 258 7.8 16.5 0.00 0.00 0.00 34 1020.5
20260906031535 78 261 7.8 13.0 0.00 0.00 0.00 34 1020.4
20260906030515 78 256 7.0 13.0 0.00 0.00 0.00 33 1020.2
20260906025555 78 259 7.0 12.2 0.00 0.00 0.00 33 1019.9
20260906024515 79 261 6.1 12.2 0.00 0.00 0.00 32 1019.7
20260906023515 79 252 6.1 12.2 0.00 0.00 0.00 31 1019.5
20260906022535 80 257 5.2 8.7 0.00 0.00 0.00 30 1019.4
20260906021515 81 257 5.2 8.7 0.00 0.00 0.00 30 1019.4
20260906020515 81 257 5.2 8.7 0.00 0.00 0.00 29 1019.4
20260906015515 82 264 3.5 8.7 0.00 0.00 0.00 29 1019.4
20260906014515 82 263 4.3 10.4 0.00 0.00 0.00 28 1019.4
20260906013515 83 295 2.6 8.7 0.00 0.00 0.00 27 1019.3
20260906012535 83 294 2.6 9.6 0.00 0.00 0.00 27 1019.3
20260906011515 83 246 2.6 7.0 0.00 0.00 0.00 27 1019.2
20260906010515 83 313 1.7 3.5 0.00 0.00 0.00 27 1019.2
20260906005536 84 6 2.6 8.7 0.00 0.00 0.00 26 1019.2
20260906004515 85 39 1.7 2.6 0.00 0.00 0.00 25 1019.2
20260906003515 85 17 1.7 6.1 0.00 0.00 0.00 25 1019.2
20260906002515 85 39 2.6 7.0 0.00 0.00 0.00 25 1019.2
20260906001515 85 53 0.9 4.3 0.00 0.00 0.00 25 1019.2
20260906000515 86 34 1.7 4.3 0.00 0.00 0.00 25 1019.2
20260905235515 86 84 0.9 2.6 0.00 0.00 0.00 25 1019.1
20260905234515 87 63 0.9 3.5 0.00 0.00 0.00 24 1019.1
20260905233535 87 269 0.0 2.6 0.00 0.00 0.00 24 1019.1
20260905232516 88 94 1.7 3.5 0.00 0.00 0.00 23 1019.0
20260905231515 89 115 1.7 3.5 0.00 0.00 0.00 23 1018.9
20260905230515 89 229 1.7 4.3 0.00 0.00 0.00 23 1018.9